Location: Pardubice
(50.0618°N, 15.7556°E)
Time: 03:02:09
(UTC+02:00)

ISS - Pass Details

Date: 29 May 2018
Orbit: 402 x 406 km, 51.6° (Epoch: 19 June)

Event Time Altitude Azimuth Distance (km) Brightness Sun altitude
Rises 00:10:37 0° 287° (WNW) 2,323 0.4 -17.7°
Reaches altitude 10° 00:12:43 10° 283° (WNW) 1,460 -0.7 -17.8°
Enters shadow 00:15:44 53° 221° (SW) 505 -3.7 -17.9°
